Hourly Data Report for October 05, 2017

All times are specified in Local Standard Time (LST). Add 1 hour to adjust for Daylight Saving Time where and when it is observed.

HOPE A
BRITISH COLUMBIA

49°22'06.000" N
121°29'53.000" W
39.00 m
1113542
71187
YHE

Download Data

Hourly Data (October 2017)
Hourly Data Report for October 5, 2017
Temp Definition
°C
Dew Point Temp Definition
°C
Rel Hum Definition
%
Wind Dir Definition
10's deg

Wind Spd Definition
km/h
Visibility Definition
km
Stn Press Definition
kPa
Hmdx Definition


Wind Chill Definition


Weather Definition


TIME
00:00 Legend Double Dagger 9.0 3.2 67 8 11 16.1 101.81     LegendNANA
01:00 Legend Double Dagger 8.0 3.0 71 10 15 16.1 101.83     LegendNANA
02:00 Legend Double Dagger 7.4 2.9 73 10 17 16.1 101.85     LegendNANA
03:00 Legend Double Dagger 7.5 2.4 70 9 13 16.1 101.89     LegendNANA
04:00 Legend Double Dagger 6.6 2.5 75 9 21 16.1 101.89     LegendNANA
05:00 Legend Double Dagger 6.0 2.5 78 9 13 16.1 101.91     LegendNANA
06:00 Legend Double Dagger 6.2 1.9 74 9 15 16.1 101.93     LegendNANA
07:00 Legend Double Dagger 5.4 1.9 78 10 17 16.1 101.95     LegendNANA
08:00 Legend Double Dagger 6.8 1.9 71 9 13 16.1 101.94     LegendNANA
09:00 Legend Double Dagger 10.2 2.4 58 10 17 16.1 101.90     LegendNANA
10:00 Legend Double Dagger 12.9 1.5 46 11 17 16.1 101.84     LegendNANA
11:00 Legend Double Dagger 15.6 2.3 41 12 11 16.1 101.73     LegendNANA
12:00 Legend Double Dagger 17.3 1.4 34 LegendMM 8 16.1 101.63     LegendNANA
13:00 Legend Double Dagger 19.2 3.0 34 27 17 16.1 101.55     LegendNANA
14:00 Legend Double Dagger 19.7 2.5 32 30 13 16.1 101.50     LegendNANA
15:00 Legend Double Dagger 19.9 2.1 30 29 11 16.1 101.45     LegendNANA
16:00 Legend Double Dagger 18.0 3.6 38 23 8 16.1 101.41     LegendNANA
17:00 Legend Double Dagger 16.1 4.6 46 LegendMM 4 16.1 101.41     LegendNANA
18:00 Legend Double Dagger 13.1 5.3 59 22 8 16.1 101.45     LegendNANA
19:00 Legend Double Dagger 12.3 5.3 62 24 5 16.1 101.52     LegendNANA
20:00 Legend Double Dagger 8.9 5.1 77 LegendMM 4 16.1 101.55     LegendNANA
21:00 Legend Double Dagger 7.1 4.3 82 LegendMM 4 16.1 101.55     LegendNANA
22:00 Legend Double Dagger 7.2 4.8 84 8 5 16.1 101.51     LegendNANA
23:00 Legend Double Dagger 5.4 3.9 90 LegendMM 4 12.9 101.54     LegendNANA

Notes on Data Quality.

Legend

  • E = Estimated
  • M = Missing
  • NA = Not Available
  • ‡ = Partner data that is not subject to review by the National Climate Archives
Date modified: